[[{"header":{"parameterUnit":"m.s-1","parameterCategory":2,"la1":30.2991,"la2":30.254,"lo1":-89.0895,"lo2":-89.0444,"dy":0.0017,"dx":0.0017,"nx":28,"ny":28,"refTime":"2024-10-09T09:00:00:Z","depth":"0","parameterNumber":2,"parameterNumberName":"U-component_of_CURRENTS"},"data":[0,0,0,0,0,0,0,0,0,0,0,0,0,0,0,0,0,0,0,0,0,0,0,0,0,0,0,0,0,0,0,0,0,0,0,0,0,0,0,0,0,0,0,0,0,0,0,0,0,0,0,0,0,0,0,0,0,0,0.2005,0.2005,0,0.2033,0.2033,0.2034,0.2034,0.2034,0.2034,0.2033,0.2024,0.2024,0.2024,0,0,0,0,0,0,0,0,0,0,0,0,0,0.1942,0.1943,0.2005,0.2005,0.2006,0.2033,0.2033,0.2034,0.2034,0.2034,0.2033,0.2033,0.2024,0.2024,0.2024,0,0,0,0,0,0,0,0,0,0,0,0,0,0.1968,0.1943,0.2005,0.2011,0.2012,0.2033,0.2033,0.2034,0.2034,0.2034,0.2033,0.2033,0.2024,0.2024,0.2024,0.2028,0,0,0.2024,0.2024,0,0,0,0,0,0,0,0,0.1966,0.197,0.2009,0.201,0.2012,0.2032,0.2008,0.2031,0.2034,0.2023,0.2033,0.2033,0.2025,0.2025,0.2028,0.2028,0.2028,0.2024,0.2024,0.2023,0.2023,0,0,0,0,0,0,0,0.1965,0.1969,0.2014,0.201,0.2011,0.2009,0.2013,0.2012,0.2023,0.2024,0.2025,0.2031,0.2025,0.2028,0.2028,0.2027,0.2024,0.2023,0.2023,0.2023,0.2054,0.2055,0,0,0,0,0,0,0.1966,0.1967,0.2013,0.2015,0.199,0.2011,0.2014,0.2024,0.2024,0.2024,0.2032,0.2031,0.2029,0.2028,0.2027,0.2055,0.2023,0.2023,0.2023,0.2053,0.2054,0.2055,0,0,0,0,0,0,0.1965,0.197,0.2012,0.1993,0.1998,0.2012,0.2023,0.2024,0.203,0.203,0.2029,0.2036,0.2028,0.2028,0.2036,0.2053,0.2023,0.2023,0.2052,0.2054,0.2055,0.2095,0,0,0,0,0,0,0.1963,0.1969,0.1973,0.1993,0.2,0.203,0.2023,0.2025,0.2035,0.2035,0.2034,0.2033,0.2028,0.2036,0.2036,0.2053,0.2023,0.2051,0.2053,0.2054,0.2093,0.2098,0.2102,0,0,0,0,0,0.1961,0.1968,0.1973,0.1979,0.2006,0.2031,0.2034,0.2041,0.2036,0.2044,0.2044,0.2033,0.2046,0.2037,0.2036,0.2053,0.205,0.2052,0.2054,0.2091,0.2097,0.2102,0,0,0,0,0,0,0.1939,0.197,0.1976,0.1991,0.2013,0.2032,0.2039,0.2044,0.205,0.2048,0.2042,0.2041,0.2057,0.2049,0.2038,0.2068,0.2047,0.2049,0.2075,0.2081,0.2086,0.2095,0.2023,0,0,0,0,0,0.1938,0.1954,0.1982,0.1994,0.2006,0.2022,0.2031,0.204,0.2051,0.2053,0.2053,0.2055,0.2065,0.2067,0.2072,0.2084,0.2098,0.2096,0.2101,0.2105,0.2113,0.2148,0.2157,0.2062,0.2062,0.2062,0,0,0.193,0.1952,0.1958,0.1991,0.2006,0.2029,0.2027,0.2046,0.2066,0.2051,0.2069,0.207,0.2072,0.2091,0.2097,0.2086,0.2142,0.2108,0.2111,0.2117,0.2151,0.2161,0.2169,0.2063,0.2063,0.2063,0,0,0.193,0.1946,0.1962,0.1985,0.2017,0.2032,0.2039,0.2064,0.2074,0.2093,0.2092,0.2107,0.2112,0.2126,0.2131,0.2164,0.2166,0.2162,0.2192,0.2227,0.2235,0.2242,0.2285,0.2296,0.2163,0.2163,0.2163,0,0.1918,0.1948,0.1969,0.1996,0.2017,0.2035,0.206,0.2077,0.21,0.2116,0.2103,0.2136,0.2132,0.217,0.2181,0.2175,0.2197,0.217,0.2234,0.2241,0.2248,0.229,0.2301,0.2166,0.2165,0.2165,0.2165,0,0.1937,0.1962,0.1975,0.2017,0.2041,0.2065,0.2098,0.212,0.213,0.2148,0.2184,0.2188,0.221,0.2211,0.2204,0.2255,0.2256,0.2236,0.222,0.226,0.2302,0.2313,0.2169,0.2168,0.2167,0.2167,0,0,0.1905,0.1974,0.1978,0.2006,0.2056,0.2079,0.2118,0.2163,0.2193,0.2211,0.2253,0.2269,0.2275,0.2282,0.2282,0.2307,0.2373,0.2293,0.2294,0.2337,0.2462,0.2485,0.2499,0.2364,0.2366,0.2368,0.2477,0,0.1913,0.1967,0.2001,0.2048,0.2078,0.2117,0.2154,0.2196,0.2227,0.227,0.229,0.2324,0.2302,0.2318,0.2343,0.2367,0.2403,0.2346,0.2415,0.2418,0.2434,0.2513,0.2467,0.2562,0.2487,0.2489,0.2491,0,0.1919,0.1959,0.2008,0.2077,0.2093,0.2122,0.2191,0.2229,0.2295,0.232,0.2362,0.2381,0.2435,0.24,0.2476,0.2442,0.2459,0.2471,0.2475,0.249,0.2462,0.2507,0.2585,0.254,0.2508,0.2506,0.2505,0,0.189,0.1962,0.2002,0.2025,0.2103,0.2131,0.2171,0.2239,0.2283,0.2358,0.24,0.2455,0.2497,0.2525,0.2562,0.2524,0.2646,0.2593,0.2635,0.2636,0.2609,0.2605,0.2652,0.265,0.265,0.265,0.265,0,0.1886,0.1917,0.1992,0.2013,0.2058,0.212,0.217,0.2222,0.2307,0.2363,0.2422,0.2486,0.2529,0.2602,0.2608,0.2681,0.269,0.2669,0.2676,0.2623,0.2619,0.2586,0.2559,0.2654,0.2653,0.2652,0.2652,0,0.1844,0.1897,0.194,0.202,0.2043,0.2072,0.2159,0.2203,0.2293,0.2373,0.2405,0.2533,0.2637,0.2692,0.2764,0.2756,0.275,0.2821,0.2767,0.2766,0.2738,0.2715,0.2666,0.2574,0.2882,0.2884,0.2885,0,0.1825,0.1846,0.1922,0.1944,0.1977,0.203,0.2067,0.2171,0.2226,0.2397,0.2439,0.2591,0.2691,0.2841,0.2872,0.2934,0.2818,0.2902,0.2813,0.2764,0.2743,0.2602,0.2515,0.2796,0.2796,0.2796,0.2797,0,0.1783,0.1809,0.1845,0.1891,0.193,0.1976,0.2045,0.2091,0.2221,0.2316,0.2464,0.2573,0.2762,0.2839,0.2947,0.2958,0.279,0.2909,0.2867,0.2704,0.2544,0.2449,0.2701,0.2799,0.2799,0.2799,0.2798,0.2798,0.1736,0.1746,0.1793,0.183,0.1873,0.1917,0.193,0.2027,0.2121,0.2248,0.2405,0.2542,0.2743,0.291,0.2912,0.2913,0.2828,0.2834,0.2822,0.269,0.2564,0.2838,0.2932,0.2933,0.2933,0.2933,0.2934,0,0.167,0.1697,0.1731,0.177,0.1784,0.1838,0.1907,0.1917,0.1991,0.2158,0.2282,0.2516,0.2663,0.2792,0.2914,0.2843,0.2661,0.2767,0.2552,0.2474,0.275,0.271,0.2748,0.2748,0.2748,0.2748,0.2748,0.2748,0.1638,0.1643,0.1667,0.167,0.1697,0.169,0.1711,0.1755,0.1852,0.2,0.2138,0.229,0.2629,0.2883,0.2895,0.2811,0.2562,0.2488,0.2416,0.2635,0.2638,0.2641,0.2596,0.261,0.261,0.2028,0.2025,0.2022]},{"header":{"parameterUnit":"m.s-1","parameterCategory":2,"la1":30.2991,"la2":30.254,"lo1":-89.0895,"lo2":-89.0444,"dy":0.0017,"dx":0.0017,"nx":28,"ny":28,"refTime":"2024-10-09T09:00:00:Z","depth":"0","parameterNumber":3,"parameterNumberName":"V-component_of_CURRENTS"},"data":[0,0,0,0,0,0,0,0,0,0,0,0,0,0,0,0,0,0,0,0,0,0,0,0,0,0,0,0,0,0,0,0,0,0,0,0,0,0,0,0,0,0,0,0,0,0,0,0,0,0,0,0,0,0,0,0,0,0,-0.0369,-0.0369,0,-0.041,-0.041,-0.0411,-0.044,-0.044,-0.044,-0.044,-0.0502,-0.0503,-0.0505,0,0,0,0,0,0,0,0,0,0,0,0,0,-0.0362,-0.0361,-0.0369,-0.0369,-0.037,-0.041,-0.041,-0.0411,-0.044,-0.044,-0.044,-0.044,-0.0501,-0.0503,-0.0505,0,0,0,0,0,0,0,0,0,0,0,0,0,-0.0381,-0.0361,-0.0369,-0.0388,-0.039,-0.041,-0.041,-0.0411,-0.044,-0.044,-0.044,-0.044,-0.05,-0.0503,-0.0505,-0.0515,0,0,-0.0512,-0.0513,0,0,0,0,0,0,0,0,-0.0379,-0.0381,-0.0385,-0.0387,-0.0389,-0.0419,-0.043,-0.0447,-0.044,-0.0422,-0.044,-0.044,-0.0475,-0.0479,-0.0488,-0.0518,-0.052,-0.0512,-0.0513,-0.0514,-0.0515,0,0,0,0,0,0,0,-0.0378,-0.038,-0.0386,-0.0385,-0.0388,-0.0411,-0.0413,-0.0434,-0.0448,-0.0423,-0.0425,-0.0428,-0.0477,-0.0485,-0.0489,-0.0521,-0.0512,-0.0514,-0.0515,-0.0516,-0.0565,-0.0565,0,0,0,0,0,0,-0.0368,-0.0378,-0.0385,-0.0387,-0.0384,-0.041,-0.0413,-0.041,-0.0447,-0.0453,-0.0428,-0.043,-0.0482,-0.0487,-0.0492,-0.0504,-0.0514,-0.0516,-0.0518,-0.0565,-0.0565,-0.0565,0,0,0,0,0,0,-0.0368,-0.0368,-0.0383,-0.0383,-0.0387,-0.041,-0.0406,-0.0411,-0.0419,-0.0451,-0.0457,-0.0432,-0.0482,-0.0489,-0.0508,-0.0507,-0.0517,-0.0519,-0.0565,-0.0565,-0.0565,-0.053,0,0,0,0,0,0,-0.0367,-0.0368,-0.0363,-0.0382,-0.0386,-0.0389,-0.0406,-0.0411,-0.042,-0.0422,-0.0456,-0.0461,-0.0483,-0.0504,-0.051,-0.051,-0.0521,-0.0565,-0.0565,-0.0565,-0.0532,-0.0529,-0.0527,0,0,0,0,0,-0.0367,-0.0355,-0.0362,-0.0363,-0.0378,-0.0389,-0.0393,-0.0411,-0.042,-0.042,-0.0444,-0.046,-0.0508,-0.0506,-0.0513,-0.0514,-0.0565,-0.0565,-0.0565,-0.0533,-0.053,-0.0527,0,0,0,0,0,0,-0.0347,-0.0357,-0.0366,-0.0357,-0.0371,-0.0393,-0.0394,-0.0408,-0.0427,-0.0428,-0.046,-0.0467,-0.0484,-0.0503,-0.05,-0.0528,-0.0539,-0.054,-0.0512,-0.051,-0.0507,-0.05,-0.0523,0,0,0,0,0,-0.0341,-0.0336,-0.0352,-0.0346,-0.035,-0.0372,-0.0379,-0.0391,-0.0409,-0.0418,-0.0441,-0.0466,-0.0489,-0.0502,-0.0523,-0.0538,-0.0561,-0.0543,-0.0541,-0.0539,-0.0537,-0.0577,-0.0578,-0.0565,-0.0565,-0.0565,0,0,-0.0332,-0.0337,-0.0334,-0.0342,-0.0353,-0.0355,-0.0377,-0.0381,-0.0386,-0.0421,-0.0433,-0.0459,-0.0491,-0.0507,-0.0517,-0.0523,-0.0552,-0.0538,-0.0536,-0.0536,-0.0577,-0.0579,-0.058,-0.0565,-0.0565,-0.0565,0,0,-0.0309,-0.0314,-0.0303,-0.0312,-0.0324,-0.0339,-0.0338,-0.0358,-0.037,-0.0385,-0.0413,-0.0437,-0.0468,-0.0493,-0.051,-0.0508,-0.0538,-0.0514,-0.0499,-0.0537,-0.0539,-0.054,-0.0561,-0.0565,-0.0514,-0.0514,-0.0514,0,-0.0296,-0.0285,-0.0302,-0.0296,-0.0299,-0.0328,-0.0319,-0.0337,-0.0362,-0.0372,-0.0382,-0.0436,-0.0463,-0.049,-0.049,-0.0504,-0.0525,-0.0505,-0.0534,-0.0536,-0.0539,-0.056,-0.0564,-0.0512,-0.0512,-0.0513,-0.0513,0,-0.0267,-0.0261,-0.0255,-0.0257,-0.0264,-0.026,-0.0285,-0.0295,-0.0314,-0.0336,-0.0364,-0.0405,-0.0437,-0.045,-0.0471,-0.0499,-0.0508,-0.0526,-0.054,-0.0538,-0.056,-0.0566,-0.051,-0.051,-0.0511,-0.0511,0,0,-0.0225,-0.0232,-0.0229,-0.0223,-0.0241,-0.024,-0.0251,-0.0268,-0.027,-0.0309,-0.0319,-0.037,-0.0395,-0.0416,-0.0449,-0.0485,-0.0518,-0.0509,-0.0512,-0.0527,-0.0592,-0.0569,-0.0572,-0.0543,-0.0544,-0.0545,-0.0597,0,-0.0195,-0.0174,-0.0189,-0.0171,-0.016,-0.0191,-0.0195,-0.0217,-0.0244,-0.0261,-0.0317,-0.0337,-0.0382,-0.0392,-0.0439,-0.0494,-0.0532,-0.0501,-0.0594,-0.0597,-0.0574,-0.0578,-0.0554,-0.0597,-0.0603,-0.0604,-0.0604,0,-0.0157,-0.0148,-0.0123,-0.0122,-0.0119,-0.0116,-0.0125,-0.0135,-0.0177,-0.0197,-0.0242,-0.0282,-0.0339,-0.0374,-0.0482,-0.046,-0.0524,-0.0572,-0.0575,-0.057,-0.0584,-0.0603,-0.0607,-0.0749,-0.0613,-0.0612,-0.0612,0,-0.0109,-0.0099,-0.0076,-0.0076,-0.0081,-0.0076,-0.0084,-0.0114,-0.0109,-0.0157,-0.0153,-0.0241,-0.0261,-0.0369,-0.0464,-0.0479,-0.0574,-0.0608,-0.0649,-0.0648,-0.0654,-0.0651,-0.0804,-0.069,-0.069,-0.069,-0.0689,0,-0.0065,-0.0045,-0.005,-0.0035,-0.0002,-0.0029,-0.0003,-0.0026,-0.0044,-0.002,-0.0114,-0.0103,-0.026,-0.0329,-0.0444,-0.0549,-0.0563,-0.0645,-0.0663,-0.0639,-0.0634,-0.0778,-0.0871,-0.0691,-0.0691,-0.0691,-0.069,0,-0.0011,-0.0018,0.0014,0.0017,0.0025,0.0047,0.0063,0.0082,0.0051,0.0079,0.0072,0.0002,-0.0082,-0.0232,-0.0385,-0.0496,-0.0696,-0.0651,-0.0599,-0.0609,-0.0787,-0.0877,-0.1057,-0.1118,-0.0719,-0.0719,-0.0719,0,0.0019,0.0041,0.0065,0.0094,0.0101,0.0129,0.0156,0.0134,0.0165,0.0161,0.0192,0.0122,0.011,-0.0108,-0.0322,-0.052,-0.0674,-0.0637,-0.0669,-0.0793,-0.0908,-0.0982,-0.1026,-0.0665,-0.0664,-0.0664,-0.0663,0,0.0081,0.0088,0.0116,0.0176,0.0213,0.0256,0.0294,0.0338,0.033,0.0368,0.0418,0.041,0.0207,0.0037,-0.0242,-0.0402,-0.0743,-0.0632,-0.0788,-0.09,-0.0965,-0.1031,-0.0626,-0.0659,-0.0659,-0.0659,-0.066,-0.066,0.0133,0.0167,0.0207,0.0269,0.0315,0.0386,0.0444,0.0503,0.0582,0.0661,0.0624,0.0658,0.036,-0.0008,-0.025,-0.068,-0.071,-0.0809,-0.0913,-0.098,-0.1032,-0.06,-0.0633,-0.0633,-0.0634,-0.0634,-0.0634,0,0.0204,0.0239,0.0299,0.0371,0.0442,0.0446,0.0543,0.0617,0.0747,0.0829,0.0889,0.0784,0.0418,0.0003,-0.0565,-0.0886,-0.1036,-0.1085,-0.1209,-0.1243,-0.0881,-0.087,-0.092,-0.092,-0.092,-0.092,-0.092,-0.0919,0.0243,0.0316,0.0344,0.0473,0.0528,0.0632,0.0699,0.0816,0.0905,0.1043,0.1087,0.1083,0.078,-0.028,-0.1013,-0.1205,-0.1459,-0.1519,-0.1646,-0.1421,-0.1404,-0.1388,-0.14,-0.156,-0.1561,-0.1953,-0.1957,-0.196]}],[{"header":{"parameterUnit":"m.s-1","parameterCategory":2,"la1":30.2991,"la2":30.254,"lo1":-89.0895,"lo2":-89.0444,"dy":0.0017,"dx":0.0017,"nx":28,"ny":28,"refTime":"2024-10-09T09:00:00:Z","depth":"2","parameterNumber":2,"parameterNumberName":"U-component_of_CURRENTS"},"data":[0,0,0,0,0,0,0,0,0,0,0,0,0,0,0,0,0,0,0,0,0,0,0,0,0,0,0,0,0,0,0,0,0,0,0,0,0,0,0,0,0,0,0,0,0,0,0,0,0,0,0,0,0,0,0,0,0,0,0.1914,0.1914,0,0.1943,0.1943,0.1943,0.1951,0.1951,0.1951,0.1951,0.1955,0.1955,0.1955,0,0,0,0,0,0,0,0,0,0,0,0,0,0.186,0.1861,0.1913,0.1914,0.1915,0.1943,0.1943,0.1943,0.1951,0.1951,0.1951,0.1951,0.1955,0.1955,0.1955,0,0,0,0,0,0,0,0,0,0,0,0,0,0.1884,0.1861,0.1913,0.1923,0.1924,0.1943,0.1943,0.1943,0.1951,0.1951,0.1951,0.1951,0.1955,0.1955,0.1955,0.1957,0,0,0.1956,0.1956,0,0,0,0,0,0,0,0,0.1883,0.1886,0.1921,0.1922,0.1924,0.1945,0.1926,0.1947,0.1951,0.1939,0.1951,0.1951,0.195,0.1951,0.1954,0.1957,0.1957,0.1956,0.1956,0.1956,0.1956,0,0,0,0,0,0,0,0.1881,0.1884,0.1923,0.1922,0.1923,0.1925,0.1928,0.193,0.1942,0.194,0.1941,0.1947,0.1951,0.1954,0.1954,0.1957,0.1956,0.1956,0.1956,0.1956,0.1996,0.1997,0,0,0,0,0,0,0.1881,0.1883,0.1922,0.1924,0.1905,0.1926,0.1929,0.1937,0.1943,0.1945,0.1947,0.1947,0.1954,0.1954,0.1955,0.199,0.1956,0.1956,0.1956,0.1995,0.1997,0.1998,0,0,0,0,0,0,0.188,0.1885,0.1921,0.1906,0.1911,0.1927,0.1935,0.1937,0.1948,0.1949,0.195,0.1956,0.1954,0.1954,0.1968,0.1989,0.1956,0.1956,0.1994,0.1996,0.1997,0.2039,0,0,0,0,0,0,0.1878,0.1884,0.189,0.1906,0.1912,0.194,0.1935,0.1938,0.1952,0.1953,0.1957,0.1957,0.1954,0.1968,0.1968,0.1988,0.1957,0.1993,0.1995,0.1997,0.2037,0.2042,0.2047,0,0,0,0,0,0.1876,0.1885,0.189,0.1895,0.1919,0.1941,0.1944,0.1954,0.1952,0.1962,0.1967,0.1957,0.198,0.1969,0.1969,0.199,0.1992,0.1994,0.1997,0.2035,0.2041,0.2047,0,0,0,0,0,0,0.1861,0.1887,0.1893,0.1908,0.1927,0.1943,0.1953,0.1959,0.197,0.1971,0.1967,0.1968,0.199,0.1983,0.1971,0.2007,0.1985,0.1988,0.2014,0.202,0.2025,0.2037,0.1957,0,0,0,0,0,0.1862,0.1877,0.19,0.1913,0.1924,0.1939,0.1949,0.1959,0.1971,0.1976,0.1979,0.1985,0.1998,0.2003,0.201,0.2027,0.2038,0.2041,0.2046,0.205,0.206,0.2094,0.2103,0.2005,0.2005,0.2005,0,0,0.1858,0.1876,0.1883,0.1911,0.1926,0.1948,0.1945,0.1966,0.1986,0.1974,0.1997,0.2002,0.2006,0.2029,0.2038,0.2027,0.2086,0.2053,0.2056,0.2064,0.2098,0.2107,0.2116,0.2006,0.2006,0.2006,0,0,0.1861,0.1877,0.1892,0.1912,0.1942,0.1956,0.1964,0.1987,0.2,0.2022,0.2023,0.2043,0.2053,0.2068,0.2074,0.211,0.2111,0.211,0.2144,0.2177,0.2186,0.2193,0.2227,0.2237,0.2112,0.2112,0.2112,0,0.1854,0.1881,0.1899,0.1923,0.1943,0.1961,0.1985,0.2002,0.2027,0.2045,0.2035,0.2075,0.2074,0.2115,0.2129,0.2122,0.2141,0.212,0.2184,0.2192,0.2199,0.2232,0.2242,0.2114,0.2114,0.2114,0.2113,0,0.1872,0.1897,0.1909,0.1947,0.197,0.1994,0.2025,0.2049,0.2063,0.2082,0.2125,0.213,0.2158,0.216,0.2154,0.2208,0.2205,0.2187,0.217,0.2212,0.2243,0.2254,0.2117,0.2117,0.2116,0.2115,0,0,0.1845,0.1909,0.1913,0.194,0.1987,0.2008,0.2049,0.2094,0.2128,0.215,0.2195,0.2218,0.2228,0.2237,0.2237,0.2262,0.2326,0.2249,0.2249,0.2284,0.2407,0.2399,0.2409,0.232,0.2322,0.2323,0.2411,0,0.1854,0.1903,0.1934,0.1981,0.2009,0.2047,0.2085,0.2129,0.2164,0.2211,0.2235,0.2274,0.2256,0.2275,0.2301,0.2323,0.2354,0.2304,0.236,0.2362,0.2351,0.2422,0.2251,0.2315,0.2421,0.2423,0.2424,0,0.186,0.1896,0.1941,0.201,0.2026,0.2055,0.2127,0.2166,0.2237,0.2266,0.2314,0.2336,0.2391,0.2358,0.243,0.2401,0.2412,0.2421,0.2424,0.241,0.2374,0.2289,0.233,0.2442,0.244,0.2439,0.2438,0,0.1833,0.19,0.1938,0.196,0.2035,0.2066,0.2109,0.2181,0.2226,0.2308,0.2351,0.2411,0.2452,0.248,0.2507,0.2477,0.2579,0.2536,0.2541,0.2541,0.2404,0.2388,0.2587,0.2587,0.2587,0.2587,0.2587,0,0.1827,0.1857,0.1929,0.1949,0.1996,0.2058,0.2114,0.2169,0.2256,0.2311,0.2377,0.2434,0.2485,0.2545,0.2548,0.2595,0.2618,0.2572,0.2572,0.2414,0.24,0.2507,0.2497,0.259,0.2589,0.2589,0.2588,0,0.1786,0.1835,0.1878,0.1958,0.1982,0.2015,0.2108,0.2153,0.2246,0.2323,0.2356,0.2476,0.2561,0.2609,0.267,0.2657,0.2689,0.2692,0.2511,0.2488,0.2616,0.2607,0.2715,0.2715,0.2716,0.2716,0.2717,0,0.1768,0.1787,0.1863,0.1885,0.1919,0.1978,0.2018,0.2125,0.2179,0.2337,0.2373,0.2504,0.2571,0.2687,0.2702,0.274,0.2733,0.2583,0.2493,0.2645,0.2634,0.2624,0.2614,0.2326,0.2324,0.2321,0.2319,0,0.1727,0.1754,0.1788,0.1833,0.1874,0.1922,0.1994,0.2034,0.2161,0.224,0.2353,0.2431,0.2576,0.2561,0.2637,0.262,0.2566,0.254,0.2755,0.2326,0.2288,0.2274,0.2275,0.2299,0.2301,0.2302,0.2304,0.2304,0.1685,0.1695,0.1738,0.1774,0.1818,0.1853,0.1866,0.1952,0.2026,0.2123,0.2252,0.2311,0.2396,0.2435,0.2394,0.237,0.2527,0.2402,0.2405,0.2412,0.2357,0.2322,0.2329,0.2331,0.2333,0.2335,0.2336,0,0.1622,0.1647,0.1678,0.1714,0.1725,0.1781,0.1837,0.1836,0.1879,0.1996,0.2079,0.1995,0.2041,0.2104,0.2064,0.21,0.2032,0.1997,0.1882,0.1908,0.193,0.1844,0.1684,0.1681,0.1678,0.1676,0,0,0.1591,0.1592,0.1611,0.1608,0.1635,0.1626,0.1637,0.1653,0.1712,0.1727,0.1757,0.1942,0.2061,0.1829,0.1839,0.1747,0.1791,0.1683,0.2222,0.2114,0.2131,0.2202,0.2106,0,0,0,0,0]},{"header":{"parameterUnit":"m.s-1","parameterCategory":2,"la1":30.2991,"la2":30.254,"lo1":-89.0895,"lo2":-89.0444,"dy":0.0017,"dx":0.0017,"nx":28,"ny":28,"refTime":"2024-10-09T09:00:00:Z","depth":"2","parameterNumber":3,"parameterNumberName":"V-component_of_CURRENTS"},"data":[0,0,0,0,0,0,0,0,0,0,0,0,0,0,0,0,0,0,0,0,0,0,0,0,0,0,0,0,0,0,0,0,0,0,0,0,0,0,0,0,0,0,0,0,0,0,0,0,0,0,0,0,0,0,0,0,0,0,-0.0092,-0.0093,0,-0.0145,-0.0146,-0.0147,-0.0188,-0.0188,-0.0189,-0.0189,-0.0262,-0.0264,-0.0266,0,0,0,0,0,0,0,0,0,0,0,0,0,-0.0065,-0.0065,-0.0092,-0.0093,-0.0093,-0.0145,-0.0146,-0.0147,-0.0188,-0.0188,-0.0189,-0.0189,-0.0262,-0.0264,-0.0266,0,0,0,0,0,0,0,0,0,0,0,0,0,-0.0094,-0.0065,-0.0092,-0.012,-0.0123,-0.0145,-0.0146,-0.0147,-0.0188,-0.0188,-0.0189,-0.0189,-0.0261,-0.0264,-0.0266,-0.027,0,0,-0.0273,-0.0275,0,0,0,0,0,0,0,0,-0.0092,-0.0095,-0.0115,-0.0118,-0.0121,-0.016,-0.0163,-0.0189,-0.0188,-0.0164,-0.0189,-0.019,-0.0229,-0.0234,-0.0244,-0.0274,-0.0277,-0.0274,-0.0275,-0.0276,-0.0277,0,0,0,0,0,0,0,-0.009,-0.0093,-0.0114,-0.0116,-0.012,-0.0143,-0.0147,-0.0169,-0.0194,-0.0166,-0.0169,-0.0174,-0.0231,-0.0241,-0.0246,-0.0278,-0.0274,-0.0276,-0.0277,-0.0278,-0.0331,-0.033,0,0,0,0,0,0,-0.008,-0.0091,-0.0112,-0.0115,-0.0107,-0.0143,-0.0148,-0.0148,-0.0193,-0.02,-0.0173,-0.0175,-0.0237,-0.0243,-0.0249,-0.0264,-0.0276,-0.0278,-0.028,-0.0331,-0.033,-0.033,0,0,0,0,0,0,-0.0079,-0.0081,-0.011,-0.0104,-0.011,-0.0142,-0.0142,-0.0148,-0.0163,-0.0198,-0.0206,-0.0182,-0.0238,-0.0245,-0.0268,-0.0267,-0.028,-0.0282,-0.0331,-0.0331,-0.033,-0.0289,0,0,0,0,0,0,-0.0078,-0.008,-0.0079,-0.0103,-0.0109,-0.012,-0.0142,-0.0149,-0.0165,-0.0168,-0.0208,-0.0215,-0.0239,-0.0264,-0.0271,-0.027,-0.0284,-0.0331,-0.0331,-0.033,-0.0291,-0.0288,-0.0285,0,0,0,0,0,-0.0076,-0.0067,-0.0078,-0.0081,-0.0105,-0.0119,-0.0125,-0.0151,-0.0164,-0.0167,-0.0195,-0.0214,-0.0268,-0.0266,-0.0273,-0.0274,-0.0331,-0.0331,-0.0331,-0.0292,-0.0288,-0.0285,0,0,0,0,0,0,-0.0053,-0.0071,-0.0084,-0.008,-0.0098,-0.0126,-0.013,-0.0149,-0.0173,-0.0178,-0.0213,-0.0222,-0.0242,-0.0263,-0.026,-0.0289,-0.0303,-0.0304,-0.0271,-0.0268,-0.0265,-0.0254,-0.0286,0,0,0,0,0,-0.0047,-0.0047,-0.0069,-0.0068,-0.0074,-0.0103,-0.0113,-0.013,-0.0153,-0.0165,-0.0193,-0.0223,-0.0246,-0.026,-0.0284,-0.0299,-0.032,-0.0304,-0.0301,-0.0299,-0.0295,-0.0329,-0.0329,-0.033,-0.033,-0.033,0,0,-0.0039,-0.0048,-0.0049,-0.0063,-0.0079,-0.008,-0.011,-0.0121,-0.0125,-0.0168,-0.0183,-0.0214,-0.0248,-0.0265,-0.0276,-0.0283,-0.0309,-0.0299,-0.0296,-0.0294,-0.0329,-0.0329,-0.0329,-0.033,-0.033,-0.033,0,0,-0.0016,-0.0029,-0.002,-0.0031,-0.0049,-0.0065,-0.0067,-0.0094,-0.011,-0.0128,-0.016,-0.0188,-0.0225,-0.0248,-0.0265,-0.0261,-0.0293,-0.027,-0.0249,-0.0282,-0.0282,-0.0282,-0.0302,-0.0305,-0.0269,-0.0269,-0.0269,0,-0.0006,0.0003,-0.002,-0.0014,-0.0017,-0.0055,-0.0045,-0.0064,-0.0097,-0.0107,-0.0127,-0.0185,-0.0216,-0.0236,-0.0238,-0.0254,-0.0276,-0.0257,-0.0278,-0.0279,-0.028,-0.03,-0.0304,-0.0267,-0.0267,-0.0268,-0.0268,0,0.0025,0.0029,0.0034,0.0031,0.0023,0.0025,-0.0,-0.0013,-0.0039,-0.0064,-0.0095,-0.0141,-0.0177,-0.0192,-0.0216,-0.0238,-0.0251,-0.0269,-0.0284,-0.0277,-0.0299,-0.0303,-0.0264,-0.0265,-0.0266,-0.0266,0,0,0.0057,0.0057,0.0058,0.0067,0.0048,0.0049,0.0043,0.0028,0.0026,-0.0021,-0.0029,-0.0085,-0.0121,-0.0142,-0.0179,-0.0211,-0.0239,-0.0242,-0.0245,-0.0257,-0.0306,-0.0303,-0.0308,-0.0265,-0.0266,-0.0266,-0.0315,0,0.0089,0.0116,0.0103,0.0126,0.014,0.0109,0.011,0.0088,0.0058,0.004,-0.0019,-0.0046,-0.0098,-0.0116,-0.0158,-0.0217,-0.025,-0.0224,-0.0314,-0.0317,-0.0312,-0.0313,-0.0288,-0.0329,-0.0319,-0.032,-0.0321,0,0.0126,0.014,0.0169,0.0182,0.0185,0.0188,0.0184,0.0177,0.0138,0.0113,0.0066,0.0019,-0.0037,-0.0081,-0.0185,-0.0167,-0.0234,-0.0282,-0.0286,-0.0301,-0.0322,-0.0337,-0.0338,-0.0328,-0.0327,-0.0327,-0.0326,0,0.0169,0.0189,0.0216,0.0219,0.0223,0.0226,0.0222,0.0195,0.0202,0.0153,0.0152,0.0069,0.004,-0.0062,-0.0168,-0.0182,-0.0273,-0.0306,-0.0365,-0.0365,-0.037,-0.037,-0.0379,-0.0379,-0.0379,-0.0379,-0.0379,0,0.0213,0.0236,0.0237,0.0252,0.0287,0.0267,0.0291,0.0273,0.0259,0.0282,0.0188,0.0196,0.0042,-0.0027,-0.0142,-0.0257,-0.0258,-0.0359,-0.0379,-0.0354,-0.0352,-0.0373,-0.0372,-0.0381,-0.0381,-0.038,-0.038,0,0.0257,0.0257,0.0292,0.0302,0.0309,0.0329,0.0346,0.0368,0.0338,0.0366,0.0356,0.029,0.0198,0.0053,-0.0097,-0.0207,-0.0328,-0.0368,-0.032,-0.0334,-0.0407,-0.0403,-0.045,-0.045,-0.045,-0.0451,-0.0451,0,0.0283,0.0306,0.0333,0.036,0.0364,0.0389,0.0417,0.0405,0.044,0.0439,0.0472,0.0392,0.0364,0.0144,-0.0069,-0.0269,-0.0303,-0.0379,-0.0409,-0.0399,-0.0415,-0.041,-0.0406,-0.0399,-0.0399,-0.0399,-0.0398,0,0.0336,0.034,0.0369,0.0423,0.0456,0.0503,0.0543,0.0589,0.0592,0.0619,0.0659,0.0635,0.0426,0.0236,-0.0046,-0.0186,-0.0351,-0.0381,-0.0387,-0.038,-0.0354,-0.0368,-0.0366,-0.0397,-0.0397,-0.0397,-0.0397,-0.0397,0.0374,0.0404,0.0441,0.0496,0.0541,0.0613,0.0667,0.0726,0.0796,0.0851,0.0819,0.0788,0.0553,0.0205,-0.0048,-0.0327,-0.0324,-0.0422,-0.0421,-0.0421,-0.0402,-0.0378,-0.042,-0.0421,-0.0421,-0.0421,-0.0421,0,0.0427,0.0459,0.0515,0.0581,0.0645,0.0654,0.0755,0.0816,0.0918,0.096,0.0984,0.0783,0.0553,0.0274,-0.0133,-0.0373,-0.0403,-0.0449,-0.0432,-0.0432,-0.0432,-0.0413,-0.0435,-0.0435,-0.0436,-0.0437,0,0,0.0456,0.0519,0.0548,0.0659,0.0708,0.0802,0.0866,0.0957,0.1013,0.1066,0.105,0.0993,0.0652,0.0365,0.0031,-0.0204,-0.0266,-0.0253,-0.0216,-0.0157,-0.0155,-0.0389,-0.0355,0,0,0,0,0]}],[{"header":{"parameterUnit":"m.s-1","parameterCategory":2,"la1":30.2991,"la2":30.254,"lo1":-89.0895,"lo2":-89.0444,"dy":0.0017,"dx":0.0017,"nx":28,"ny":28,"refTime":"2024-10-09T09:00:00:Z","depth":"4","parameterNumber":2,"parameterNumberName":"U-component_of_CURRENTS"},"data":[0,0,0,0,0,0,0,0,0,0,0,0,0,0,0,0,0,0,0,0,0,0,0,0,0,0,0,0,0,0,0,0,0,0,0,0,0,0,0,0,0,0,0,0,0,0,0,0,0,0,0,0,0,0,0,0,0,0,0.1229,0.123,0,0.1293,0.1293,0.1294,0.1345,0.1345,0.1346,0.1347,0.1416,0.1418,0.1419,0,0,0,0,0,0,0,0,0,0,0,0,0,0.1138,0.114,0.1229,0.123,0.1231,0.1292,0.1293,0.1294,0.1345,0.1345,0.1346,0.1347,0.1416,0.1418,0.1419,0,0,0,0,0,0,0,0,0,0,0,0,0,0.1186,0.114,0.1229,0.1265,0.1269,0.1292,0.1293,0.1294,0.1344,0.1345,0.1346,0.1347,0.1416,0.1417,0.1419,0.1411,0,0,0.1425,0.1426,0,0,0,0,0,0,0,0,0.1183,0.1189,0.1258,0.1262,0.1267,0.1313,0.1287,0.1334,0.1344,0.1314,0.1347,0.1348,0.1383,0.1387,0.1395,0.1414,0.1417,0.1425,0.1426,0.1427,0.1428,0,0,0,0,0,0,0,0.118,0.1186,0.1252,0.1259,0.1264,0.1273,0.1281,0.1296,0.1341,0.1317,0.1321,0.133,0.1385,0.1393,0.1397,0.1419,0.1425,0.1427,0.1428,0.1429,0.152,0.1521,0,0,0,0,0,0,0.1175,0.1183,0.1251,0.1255,0.1228,0.1274,0.1283,0.1296,0.1341,0.1349,0.1329,0.1332,0.1389,0.1395,0.14,0.147,0.1427,0.1429,0.143,0.1518,0.152,0.1521,0,0,0,0,0,0,0.1173,0.118,0.1248,0.1221,0.1231,0.1275,0.1289,0.1297,0.1333,0.1351,0.1359,0.1361,0.139,0.1397,0.144,0.147,0.143,0.1431,0.1517,0.1519,0.1521,0.1561,0,0,0,0,0,0,0.117,0.1179,0.1199,0.1221,0.1232,0.1281,0.1289,0.1297,0.1336,0.1342,0.138,0.1386,0.1392,0.1437,0.1442,0.1472,0.1433,0.1515,0.1518,0.152,0.1558,0.1564,0.1569,0,0,0,0,0,0.1166,0.1185,0.1199,0.1208,0.1254,0.1282,0.1289,0.1321,0.1337,0.1357,0.1386,0.1386,0.1456,0.144,0.1445,0.1476,0.1514,0.1517,0.152,0.1556,0.1563,0.1569,0,0,0,0,0,0,0.1158,0.1193,0.1209,0.1239,0.1268,0.1292,0.1317,0.1335,0.1373,0.1387,0.1401,0.1409,0.1458,0.1461,0.1442,0.151,0.1486,0.149,0.1511,0.1518,0.1524,0.1521,0.1434,0,0,0,0,0,0.1163,0.119,0.1219,0.1247,0.1264,0.1295,0.1315,0.1338,0.1367,0.1387,0.1413,0.1442,0.1469,0.1489,0.151,0.1545,0.155,0.157,0.1575,0.158,0.1582,0.1611,0.1619,0.1531,0.1531,0.1531,0,0,0.1167,0.1192,0.1208,0.1248,0.1275,0.1301,0.1311,0.1351,0.1379,0.1387,0.1442,0.1464,0.1482,0.1525,0.1547,0.1535,0.161,0.1584,0.1587,0.1586,0.1615,0.1624,0.1631,0.1533,0.1532,0.1532,0,0,0.1179,0.1213,0.1236,0.1261,0.1306,0.1325,0.1341,0.1381,0.1411,0.1457,0.1473,0.1514,0.1555,0.1574,0.1587,0.1635,0.1638,0.1649,0.1677,0.1706,0.1713,0.172,0.1746,0.1754,0.1652,0.1652,0.1652,0,0.1185,0.1217,0.1247,0.1273,0.13,0.1337,0.1365,0.1395,0.1447,0.1473,0.1483,0.1558,0.1576,0.1622,0.1644,0.1648,0.1665,0.1649,0.1713,0.1719,0.1725,0.175,0.1759,0.1655,0.1654,0.1654,0.1654,0,0.1204,0.124,0.1257,0.1303,0.1334,0.1368,0.1408,0.1449,0.1488,0.1517,0.1583,0.1611,0.1655,0.167,0.1673,0.1729,0.1728,0.1715,0.1693,0.1737,0.176,0.1769,0.1658,0.1657,0.1656,0.1656,0,0,0.1189,0.1257,0.1266,0.1293,0.1356,0.1379,0.1433,0.1486,0.1527,0.1581,0.1634,0.1685,0.171,0.1726,0.1742,0.1768,0.1828,0.1766,0.1766,0.1788,0.19,0.1808,0.1808,0.1831,0.1833,0.1834,0.1903,0,0.1198,0.1248,0.1283,0.1335,0.1364,0.1415,0.1461,0.1516,0.1568,0.1628,0.1671,0.1729,0.1728,0.1763,0.1791,0.1822,0.1851,0.1811,0.1858,0.1859,0.1769,0.1815,0.1839,0.1909,0.1911,0.1912,0.1913,0,0.12,0.1237,0.1287,0.1356,0.1375,0.1414,0.1495,0.1541,0.1625,0.1669,0.1732,0.177,0.1835,0.1822,0.1895,0.1874,0.1894,0.1907,0.191,0.1813,0.1782,0.1855,0.1928,0.1927,0.1926,0.1925,0.1924,0,0.1165,0.1237,0.1279,0.1303,0.1385,0.1425,0.1476,0.1559,0.1608,0.1705,0.1755,0.1825,0.188,0.1913,0.1957,0.1936,0.2027,0.1996,0.1931,0.1925,0.1968,0.196,0.2042,0.2042,0.2042,0.2042,0.2042,0,0.1148,0.1185,0.1271,0.1293,0.135,0.1416,0.1486,0.1547,0.164,0.1699,0.178,0.1833,0.1908,0.1968,0.1984,0.199,0.2054,0.1943,0.1937,0.1985,0.1979,0.1975,0.1966,0.2045,0.2044,0.2043,0.2043,0,0.1098,0.1156,0.1208,0.1302,0.1335,0.1379,0.1488,0.1533,0.1634,0.1715,0.1753,0.1864,0.1939,0.2001,0.2067,0.2021,0.2036,0.2022,0.2089,0.2085,0.1905,0.1898,0.194,0.1937,0.1935,0.1933,0.1932,0,0.1074,0.1098,0.1202,0.1236,0.1283,0.136,0.1411,0.152,0.1567,0.1717,0.1746,0.1865,0.1927,0.1944,0.2015,0.2045,0.2023,0.2016,0.1934,0.1905,0.1896,0.1892,0.1888,0.1928,0.1928,0.1927,0.1926,0,0.1027,0.1075,0.1119,0.1191,0.1251,0.1305,0.1388,0.1412,0.1536,0.1641,0.1699,0.1747,0.1833,0.188,0.1929,0.1941,0.2006,0.1991,0.1995,0.1918,0.1891,0.1883,0.1882,0.1919,0.192,0.192,0.1921,0,0.0994,0.1012,0.1079,0.1132,0.1203,0.1232,0.1282,0.1341,0.14,0.1557,0.1576,0.1704,0.1811,0.183,0.1873,0.1884,0.1846,0.1774,0.1788,0.1798,0.1721,0.1664,0.1623,0,0,0,0,0,0.0953,0.0968,0.1015,0.1066,0.1131,0.1171,0.1259,0.1311,0.1428,0.143,0.1496,0.1567,0.1634,0.1702,0.1685,0.182,0.1858,0.1794,0.1783,0.1875,0.1884,0.1808,0,0,0,0,0,0,0.0926,0.0967,0.0987,0.1,0.1022,0.108,0.1131,0.1209,0.1213,0.1338,0.138,0.1481,0.1566,0.1628,0.1657,0.168,0.1643,0.1876,0.1873,0.187,0.1878,0.1886,0.181,0,0,0,0,0]},{"header":{"parameterUnit":"m.s-1","parameterCategory":2,"la1":30.2991,"la2":30.254,"lo1":-89.0895,"lo2":-89.0444,"dy":0.0017,"dx":0.0017,"nx":28,"ny":28,"refTime":"2024-10-09T09:00:00:Z","depth":"4","parameterNumber":3,"parameterNumberName":"V-component_of_CURRENTS"},"data":[0,0,0,0,0,0,0,0,0,0,0,0,0,0,0,0,0,0,0,0,0,0,0,0,0,0,0,0,0,0,0,0,0,0,0,0,0,0,0,0,0,0,0,0,0,0,0,0,0,0,0,0,0,0,0,0,0,0,0.0108,0.0108,0,0.0061,0.0061,0.006,0.0027,0.0027,0.0027,0.0026,-0.0037,-0.0039,-0.004,0,0,0,0,0,0,0,0,0,0,0,0,0,0.0148,0.0148,0.0108,0.0108,0.0107,0.0062,0.0061,0.006,0.0027,0.0027,0.0027,0.0026,-0.0037,-0.0038,-0.004,0,0,0,0,0,0,0,0,0,0,0,0,0,0.0119,0.0148,0.0109,0.0085,0.0083,0.0062,0.0061,0.006,0.0027,0.0027,0.0027,0.0026,-0.0036,-0.0038,-0.004,-0.0047,0,0,-0.0047,-0.0048,0,0,0,0,0,0,0,0,0.0121,0.0118,0.0089,0.0087,0.0084,0.005,0.0052,0.0024,0.0027,0.0048,0.0026,0.0026,-0.0009,-0.0014,-0.0022,-0.005,-0.0052,-0.0047,-0.0049,-0.005,-0.005,0,0,0,0,0,0,0,0.0123,0.0119,0.009,0.0089,0.0086,0.007,0.0066,0.0046,0.0022,0.0046,0.0044,0.0039,-0.0011,-0.0019,-0.0023,-0.0053,-0.0047,-0.0049,-0.0051,-0.0051,-0.0099,-0.0099,0,0,0,0,0,0,0.0131,0.0121,0.0091,0.0088,0.0102,0.007,0.0065,0.0061,0.0022,0.0016,0.0039,0.0038,-0.0016,-0.0021,-0.0026,-0.0033,-0.005,-0.0052,-0.0053,-0.0099,-0.0099,-0.0099,0,0,0,0,0,0,0.0132,0.0128,0.0093,0.0104,0.0098,0.007,0.0066,0.006,0.005,0.0017,0.0011,0.0034,-0.0016,-0.0023,-0.0042,-0.0036,-0.0053,-0.0055,-0.0099,-0.0099,-0.0099,-0.005,0,0,0,0,0,0,0.0133,0.0129,0.0131,0.0104,0.0098,0.0084,0.0066,0.006,0.0048,0.0045,0.001,0.0004,-0.0017,-0.0038,-0.0044,-0.004,-0.0056,-0.0099,-0.0099,-0.0099,-0.0052,-0.0048,-0.0045,0,0,0,0,0,0.0135,0.014,0.0131,0.0128,0.0101,0.0084,0.008,0.0058,0.0048,0.0046,0.0023,0.0005,-0.0042,-0.004,-0.0047,-0.0043,-0.0099,-0.0099,-0.0099,-0.0053,-0.0049,-0.0046,0,0,0,0,0,0,0.0159,0.0136,0.0126,0.0124,0.0107,0.0079,0.0077,0.006,0.0041,0.0038,0.0006,-0.0001,-0.0017,-0.0037,-0.0034,-0.0057,-0.0074,-0.0075,-0.0037,-0.0033,-0.003,-0.001,-0.0058,0,0,0,0,0,0.0165,0.0162,0.0138,0.0137,0.013,0.0104,0.0095,0.008,0.0058,0.0049,0.0025,-0.0001,-0.0021,-0.0032,-0.0055,-0.0065,-0.0085,-0.0068,-0.0065,-0.0062,-0.0051,-0.0077,-0.0075,-0.0098,-0.0098,-0.0098,0,0,0.0174,0.0162,0.016,0.0142,0.0127,0.0126,0.0098,0.0088,0.0087,0.0046,0.0038,0.0009,-0.0022,-0.0035,-0.0043,-0.0051,-0.0068,-0.0062,-0.0059,-0.0049,-0.0076,-0.0074,-0.0072,-0.0098,-0.0098,-0.0098,0,0,0.0194,0.018,0.0186,0.0176,0.0158,0.0143,0.0142,0.0115,0.0104,0.009,0.0062,0.0039,0.0006,-0.0012,-0.0027,-0.0019,-0.0051,-0.0031,0.0003,-0.0022,-0.002,-0.0019,-0.0046,-0.0047,-0.0028,-0.0028,-0.0028,0,0.0205,0.0209,0.0185,0.019,0.0188,0.0154,0.0164,0.0148,0.0119,0.0115,0.0095,0.0049,0.0019,0.0009,0.0009,-0.001,-0.0032,-0.0007,-0.0017,-0.0016,-0.0015,-0.0043,-0.0045,-0.0025,-0.0026,-0.0026,-0.0026,0,0.0228,0.0233,0.0237,0.0233,0.0229,0.023,0.0209,0.0202,0.0182,0.0164,0.0144,0.0101,0.0076,0.0059,0.0036,0.0028,0.0008,-0.001,-0.0023,-0.0009,-0.004,-0.0043,-0.0022,-0.0023,-0.0023,-0.0024,0,0,0.0247,0.0253,0.0254,0.0266,0.0253,0.0254,0.0257,0.025,0.0256,0.0218,0.0221,0.0176,0.0148,0.013,0.0094,0.007,0.005,0.0037,0.0034,0.0017,-0.0009,-0.0028,-0.0034,0.0029,0.0028,0.0028,-0.0034,0,0.0273,0.0299,0.0292,0.032,0.0333,0.0313,0.0322,0.0312,0.0292,0.0284,0.0238,0.0221,0.0176,0.0162,0.0133,0.007,0.0045,0.0068,-0.0025,-0.0027,-0.0041,-0.0036,0.0028,-0.0036,-0.0037,-0.0037,-0.0038,0,0.0297,0.0313,0.0346,0.0371,0.0375,0.0386,0.0397,0.0399,0.0379,0.0361,0.0334,0.0295,0.0256,0.0214,0.0123,0.0139,0.0074,0.0023,0.0019,-0.0014,-0.0052,-0.0053,-0.0043,-0.0043,-0.0042,-0.0042,-0.0042,0,0.0324,0.0353,0.0385,0.0391,0.0409,0.0424,0.0431,0.0423,0.0434,0.041,0.0409,0.0352,0.0322,0.0241,0.0132,0.0127,0.0028,0.0006,-0.0071,-0.0073,-0.0058,-0.0059,-0.0051,-0.0051,-0.0051,-0.0051,-0.0051,0,0.0352,0.0378,0.0402,0.0418,0.046,0.0459,0.0494,0.0489,0.0491,0.0506,0.0451,0.0442,0.0327,0.0255,0.0154,0.0032,0.0042,-0.006,-0.0088,-0.0038,-0.0036,-0.0061,-0.0061,-0.0053,-0.0053,-0.0052,-0.0052,0,0.0372,0.0387,0.0427,0.0458,0.0473,0.05,0.0538,0.0561,0.0555,0.0572,0.0569,0.0506,0.0408,0.029,0.0151,0.0062,-0.0052,-0.0098,-0.0032,-0.0056,-0.0143,-0.014,-0.0185,-0.0186,-0.0187,-0.0188,-0.0189,0,0.0384,0.0407,0.0456,0.0482,0.0498,0.054,0.0571,0.0587,0.0611,0.0607,0.0617,0.054,0.048,0.0279,0.0142,-0.0045,-0.0077,-0.0138,-0.0142,-0.0132,-0.0155,-0.0151,-0.0147,-0.019,-0.019,-0.0191,-0.0191,0,0.0405,0.0422,0.0453,0.051,0.055,0.0599,0.0643,0.0667,0.0684,0.0685,0.0654,0.0552,0.044,0.0279,0.0132,-0.0005,-0.0099,-0.0149,-0.0148,-0.0152,-0.0139,-0.016,-0.0155,-0.0194,-0.0194,-0.0194,-0.0193,0,0.0419,0.0442,0.0484,0.0532,0.0587,0.0637,0.0662,0.0689,0.0712,0.0708,0.0693,0.0574,0.0505,0.0299,0.0164,0.0028,-0.0013,-0.0063,-0.0067,-0.0065,-0.0018,0.0016,-0.001,0,0,0,0,0,0.0428,0.0455,0.0503,0.0556,0.0611,0.0645,0.0702,0.0722,0.0742,0.0728,0.0713,0.0608,0.0405,0.0319,0.0181,0.0132,-0.0043,-0.0037,-0.0105,-0.0213,-0.0209,-0.0176,0,0,0,0,0,0,0.0435,0.0479,0.0501,0.0565,0.0605,0.067,0.0709,0.0726,0.0717,0.0716,0.0616,0.0563,0.0372,0.0488,0.0176,0.0134,0.0069,-0.0129,-0.0132,-0.0215,-0.0212,-0.0209,-0.0174,0,0,0,0,0]}]]